Regional Weather Roundup
Issued by NWS New Orleans/Baton Rouge, LA

Home | Current Version | Previous Version | Text Only | Print | Product List | Glossary On
Versions: 1 2 3 4 5 6 7 8 9 10 11 12 13 14 15 16 17 18 19 20 21 22 23 24 25 26 27 28 29 30 31 32 33 34 35 36 37 38 39 40 41 42 43 44 45 46 47 48 49 50
307
ASUS44 KLIX 190813
RWRLIX
NEW ORLEANS REGIONAL WEATHER ROUNDUP
NATIONAL WEATHER SERVICE NEW ORLEANS LA
300 AM CDT THU OCT 19 2017

NOTE: "FAIR" INDICATES FEW OR NO CLOUDS BELOW 12,000 FEET WITH NO
      SIGNIFICANT WEATHER AND/OR OBSTRUCTIONS TO VISIBILITY.
      SKY/WX - SKY CONDITION AND SIGNIFICANT WEATHER.
      TMP - AIR TEMPERATURE.     DP    - DEWPOINT TEMPERATURE.
      RH  - RELATIVE HUMIDITY.   PRES  - PRESSURE.
      HI  - HEAT INDEX.          WCI   - WIND CHILL INDEX.

*  THESE STATIONS ARE NOT NWS OR FAA STATIONS AND ARE NOT UNDER
   NWS QUALITY CONTROL.

LAZ038-040-048-061>063-065>067-069-190900-
SOUTHEAST LOUISIANA

CITY           SKY/WX    TMP DP  RH WIND       PRES   REMARKS
N.O. INTL ARPT PTCLDY    63  59  87 E5        30.14F
N.O. LAKEFRONT CLEAR     70  61  73 E12       30.14F
N.O. DOWNTOWN*   N/A     67  57  70 NE7       30.15F
RESERVE*         N/A     62  60  91 CALM      30.15S
SLIDELL        CLEAR     54  51  90 CALM      30.15F
BATON ROUGE    PTCLDY    59  57  93 NE5       30.15F
BOOTHVILLE     CLEAR     76  69  79 E7        30.12F
BELLE CHASSE   NOT AVBL
BOGALUSA*        N/A     51  48  90 N3        30.19S
GALLIANO*      SUNNY     67  61  79 CALM      30.13S
NEW ROADS*       N/A     59  58  97 CALM      30.15F
GONZALES*        N/A     57  57  99 CALM      30.14F
HAMMOND*       CLEAR     55  52  88 CALM      30.16S
HOUMA*         CLEAR    N/A N/A N/A NE3       30.13F
PORT FOURCHON* SUNNY     73  66  78 NE9       30.12F

$$

MSZ070-080>082-190900-
SOUTHERN MISSISSIPPI

CITY           SKY/WX    TMP DP  RH WIND       PRES   REMARKS
MCCOMB         CLEAR     52  48  86 CALM      30.17F
GULFPORT       CLEAR     58  55  90 CALM      30.16S
BILOXI         CLEAR     59  55  86 N5        30.15F
PASCAGOULA     CLEAR     58  54  86 NE5       30.15F

$$

COASTAL OBSERVATIONS
LAKE AND NEARSHORE STATIONS

STATION/POSITION TIME  TEMP    WIND        PRES    WAVE
                       AIR SEA DIR/SP/G            HT/PER
                 (UTC) (F)     (DEG/KT/KT) (MB)    (FT/S)
PASCAGOULA       0736   63      50/  8/ 11 1020.4
WAVELAND YACHT   0736   63 72   40/  8/  9 1021.0
GRAND ISLE       0736   72 77   60/  8/ 11 1020.0
SOUTHWEST PASS   0748           70/ 17/ 19   N/A
NEW CANAL        0736   69 76   80/  7/  9 1020.7
SHELL BEACH      0736   71 76   50/  9/ 10 1020.6

OFFSHORE STATIONS

STATION/POSITION TIME  TEMP    WIND        PRES    WAVE
                       AIR SEA DIR/SP/G            HT/PER
                 (UTC) (F)     (DEG/KT/KT) (MB)    (FT/S)
64 S DAUPHIN ISL 0750   78 81   70/ 14/ 17 1019.6    4/ 6

$$





USA.gov is the U.S. government's official web portal to all federal, state and local government web resources and services.